Regional Weather Roundup
Issued by NWS Sioux Falls, SD

Home | Current Version | Previous Version | Graphics & Text | Print | Product List | Glossary On
Versions: 1 2 3 4 5 6 7 8 9 10 11 12 13 14 15 16 17 18 19 20 21 22 23 24 25 26 27 28 29 30 31 32 33 34 35 36 37 38 39 40 41 42 43 44 45 46 47 48 49 50
000
ASUS43 KFSD 291710
RWRFSD

WEATHER ROUNDUP FOR SE SOUTH DAKOTA/SW MINNESOTA/NW IOWA
NATIONAL WEATHER SERVICE SIOUX FALLS SD
1200 PM CDT MON JUN 29 2015

NOTE: "FAIR" INDICATES FEW OR NO CLOUDS BELOW 12,000 FEET WITH NO
SIGNIFICANT WEATHER AND OR OBSTRUCTIONS TO VISIBILITY.


SDZ038>040-050-052>070-291800-
SOUTHEAST SOUTH DAKOTA

CITY           SKY/WX    TMP DP  RH WIND       PRES   REMARKS
BROOKINGS      SUNNY     77  63  61 NW9       29.96S
CHAMBERLAIN    SUNNY     79  60  52 W6        29.99F
HURON          SUNNY     80  61  52 NW9       29.95F
MADISON        FAIR      77  63  61 NW16      29.97R
MITCHELL       SUNNY     82  61  48 NW9       29.96F HAZE
SIOUX FALLS    CLOUDY    81  60  48 NW9       29.94F
WINNER         FAIR      85  53  33 N10       30.02S
YANKTON        SUNNY     81  61  50 NW9       29.95F
$$

MNZ071-072-080-081-089-090-097-098-291800-
SOUTHWEST MINNESOTA

CITY           SKY/WX    TMP DP  RH WIND       PRES   REMARKS
FAIRMONT       SUNNY     77  61  57 NW13      29.89S
JACKSON        SUNNY     79  63  57 NW13G18   29.92S
LUVERNE        SUNNY     79  59  50 NW10      29.95S
MARSHALL       SUNNY     77  61  57 NW10      29.91S
MONTEVIDEO     SUNNY     75  64  69 NW7       29.90S
PIPESTONE      SUNNY     77  61  57 NW9       29.95S
REDWOOD FALLS  SUNNY     78  65  63 W13       29.88S
TRACY          SUNNY     78  64  62 NW9       29.92S
WINDOM         SUNNY     79  61  53 W13       29.91S
WORTHINGTON    SUNNY     77  61  57 NW12      29.93S
$$

IAZ001>003-012>014-020>022-031-032-NEZ013-014-SDZ071-291800-
NORTHWEST IOWA

CITY           SKY/WX    TMP DP  RH WIND       PRES   REMARKS
CHEROKEE       SUNNY     78  65  63 NW8G17    29.93R
DENISON        SUNNY     79  64  61 N9        29.92S
ESTHERVILLE    SUNNY     77  63  61 NW12      29.91S
LE MARS        SUNNY     79  64  61 NW10      29.95S
ORANGE CITY    SUNNY     77  63  61 NW10      29.95R
SHELDON        SUNNY     79  63  57 NW10      29.93R
SIOUX CITY     SUNNY     80  63  55 NW7       29.95S
SPENCER        SUNNY     80  62  54 NW10      29.92S
STORM LAKE     MOSUNNY   79  63  57 N14       29.94S
$$

ABBREVIATIONS USED IN REMARKS
   TC - TEMPERATURE IN CELSIUS
  WCI - WIND CHILL INDEX
   HX - HEAT INDEX
  VSB - VISIBILITY



USA.gov is the U.S. government's official web portal to all federal, state and local government web resources and services.